Current Weather Conditions: station 63115

sailwx.info

Wind from 250 at 19 knots

Wave height 1.8 meters (5 feet), 5 second period

Air temperature 9.2° C
Visibility: greater than 10.8 NM
Dewpoint 7.4° C

Last reported at 2016-Dec-04 06:00 UTC.
Time now 2016-Dec-04 08:14 UTC

Location: N 61°36' E 001°18'.
View on Google Maps.

See reports from other nearby stations

  
Tides and Currents Weather Stations Pressure Air Temp Water Temp Dewpoint Dewpoint Depression Visibility Wind Speed Wind Dir Waves Ship Positions
date/time (UTC)wind fromknots sea level pressurealtimeterstation pressurevisibilityair tempwater tempwave heightnotes
2016-Dec-04 06:00 250 19 10.8 9.2 1.8
2016-Dec-04 05:00 250 17 10.8 9.0 2.0
2016-Dec-04 04:00 250 17 10.8 9.0 2.0
2016-Dec-04 03:00 250 15 10.8 8.8 1.9
2016-Dec-04 02:00 250 18 10.8 8.8 1.8
2016-Dec-04 01:00 250 14 10.8 8.8 1.8
2016-Dec-04 00:00 260 15 10.8 8.8 2.0
2016-Dec-03 23:00 260 15 10.8 8.8 2.0
2016-Dec-03 22:00 260 14 10.8 8.8 1.9
2016-Dec-03 21:00 260 15 10.8 8.8 2.0
2016-Dec-03 20:00 260 17 10.8 8.8 1.8
2016-Dec-03 19:00 270 17 10.8 8.9 1.8
2016-Dec-03 18:00 260 17 10.8 8.8 1.9
2016-Dec-03 17:00 250 15 10.8 8.6 1.9
2016-Dec-03 16:00 250 15 27.0 8.7 1.9
2016-Dec-03 15:00 260 15 27.0 8.6 2.0
2016-Dec-03 14:00 290 13 10.8 7.8 2.0
2016-Dec-03 13:00 270 12 27.0 8.0 2.0
2016-Dec-03 12:00 270 9 10.8 7.1 2.0
2016-Dec-03 11:00 290 13 10.8 7.6 2.2
2016-Dec-03 10:00 310 9 10.8 7.0 2.2
2016-Dec-03 09:00 290 12 1.1 6.8 2.2
2016-Dec-03 08:00 270 11 27.0 7.7 2.4
2016-Dec-03 07:00 250 13 27.0 7.9 2.3
2016-Dec-03 06:00 260 14 10.8 7.6 2.2
2016-Dec-03 05:00 250 13 10.8 8.7 2.5
2016-Dec-03 04:00 260 13 10.8 8.7 2.3
2016-Dec-03 03:00 250 12 10.8 8.7 2.4
2016-Dec-03 02:00 250 11 27.0 8.4 2.5
2016-Dec-03 01:00 240 12 27.0 8.1 2.7
2016-Dec-03 00:00 240 12 27.0 7.7 2.9
2016-Dec-02 23:00 230 13 27.0 7.7 2.8
2016-Dec-02 22:00 230 13 27.0 7.6 3.2
2016-Dec-02 21:00 240 12 10.8 7.1 3.2
2016-Dec-02 20:00 250 11 27.0 6.8 3.4
2016-Dec-02 19:00 240 11 27.0 6.5 3.2
2016-Dec-02 18:00 230 8 27.0 6.4 3.2
2016-Dec-02 17:00 240 9 27.0 6.3 3.2
2016-Dec-02 16:00 240 8 27.0 6.2 3.3
2016-Dec-02 15:00 300 4 27.0 5.1 3.0
2016-Dec-02 14:00 280 6 27.0 5.4 3.0
2016-Dec-02 13:00 300 6 27.0 5.1 3.3
2016-Dec-02 12:00 300 6 10.8 5.5 3.2
2016-Dec-02 11:00 320 6 27.0 5.9 3.3
2016-Dec-02 10:00 320 6 10.8 5.8 3.3
2016-Dec-02 09:00 310 6 10.8 5.8 3.4
2016-Dec-02 08:00 350 8 5.4 5.8 3.4